Morrisville, NC

8:44 AM EST on January 18, 2017 (GMT -0500)
Raleigh-Durham International

Weather History for KRDU - September, 2014

Change the Weather History Date:

Friday, September 26, 2014

  Actual Average Record
Temperature  
Mean Temperature 68 °F 68 °F  
Max Temperature 76 °F 79 °F 93 °F (1933)
Min Temperature 59 °F 58 °F 37 °F (1950)
Degree Days  
Heating Degree Days 0 1  
Month to date heating degree days 10 10  
Since 1 July heating degree days 10 11  
Cooling Degree Days 3 5  
Month to date cooling degree days 225 210  
Year to date cooling degree days 1583 1651  
Growing Degree Days 18 (Base 50)    
Moisture  
Dew Point 60 °F    
Average Humidity 74    
Maximum Humidity 93    
Minimum Humidity 54    
Precipitation  
Precipitation T in 0.12 in 2.31 in (1956)
Month to date precipitation 5.90 3.84  
Year to date precipitation 44.31 33.38  
Sea Level Pressure  
Sea Level Pressure 30.20 in    
Wind  
Wind Speed 5 mph (NE)    
Max Wind Speed 14 mph    
Max Gust Speed 18 mph    
Visibility 7 miles    
Events Rain    
T = Trace of Precipitation, MM = Missing Value Source: NWS Daily Summary

Daily Weather History Graph

Daily Weather History Graph

Search for Another Location

Airport or City:

Trip Planner

Search our weather history database for the weather conditions in past years. The results will help you decide how hot, cold, wet, or windy it might be!

Date:

Astronomy

Sep. 26, 2014 Rise Set
Actual Time 7:06 AM EDT 7:06 PM EDT
Civil Twilight 6:40 AM EDT 7:31 PM EDT
Nautical Twilight 6:10 AM EDT 8:01 PM EDT
Astronomical Twilight 5:40 AM EDT 8:31 PM EDT
Moon 9:15 AM EDT (9/26) 8:30 PM EDT (9/26)
Length of Visible Light 12h 50m
Length of Day
11h 59m
Waxing Crescent, 6% of the Moon is Illuminated
Sep 26
Waxing Crescent
Oct 1
First Quarter
Oct 8
Full
Oct 15
Last Quarter
Oct 23
New

Hourly Weather History & Observations

Time (EDT) Temp. Dew Point Humidity Pressure Visibility Wind Dir Wind Speed Gust Speed Precip Events Conditions
12:51 AM 64.0 °F 61.0 °F 90% 30.21 in 10.0 mi NNE 5.8 mph - 0.00 in   Light Drizzle
1:35 AM 64.4 °F 60.8 °F 88% 30.21 in 7.0 mi NNE 4.6 mph - 0.00 in   Light Drizzle
1:51 AM 64.0 °F 61.0 °F 90% 30.21 in 4.0 mi NNE 5.8 mph - 0.00 in   Light Drizzle
2:51 AM 64.0 °F 61.0 °F 90% 30.19 in 5.0 mi NNE 6.9 mph - 0.00 in   Light Drizzle
3:51 AM 64.0 °F 61.0 °F 90% 30.19 in 9.0 mi NE 5.8 mph - 0.00 in   Light Drizzle
4:51 AM 64.0 °F 60.1 °F 87% 30.19 in 7.0 mi NE 9.2 mph 16.1 mph 0.00 in   Light Drizzle
5:24 AM 64.4 °F 60.8 °F 88% 30.19 in 2.5 mi NE 5.8 mph - 0.00 in   Light Drizzle
5:51 AM 63.0 °F 61.0 °F 93% 30.18 in 2.5 mi NNE 6.9 mph - 0.00 in   Overcast
6:51 AM 63.0 °F 61.0 °F 93% 30.19 in 2.5 mi NE 8.1 mph - 0.00 in   Light Drizzle
7:00 AM 62.6 °F 60.8 °F 94% 30.20 in 1.0 mi NNE 10.4 mph - 0.00 in   Light Drizzle
7:42 AM 62.6 °F 60.8 °F 94% 30.21 in 3.0 mi NE 9.2 mph - 0.00 in   Overcast
7:51 AM 63.0 °F 60.1 °F 90% 30.20 in 6.0 mi NE 6.9 mph - 0.00 in   Overcast
8:14 AM 62.6 °F 60.8 °F 94% 30.22 in 2.0 mi NE 6.9 mph - 0.00 in   Light Drizzle
8:34 AM 64.4 °F 60.8 °F 88% 30.22 in 1.0 mi NE 6.9 mph - 0.00 in   Light Drizzle
8:51 AM 64.0 °F 61.0 °F 90% 30.22 in 1.0 mi NNE 8.1 mph - 0.00 in   Light Drizzle
9:02 AM 64.4 °F 60.8 °F 88% 30.23 in 2.0 mi NE 10.4 mph - 0.00 in   Light Drizzle
9:28 AM 64.4 °F 60.8 °F 88% 30.23 in 7.0 mi NE 10.4 mph - 0.00 in   Overcast
9:51 AM 64.9 °F 61.0 °F 87% 30.22 in 10.0 mi NE 8.1 mph - 0.00 in   Overcast
10:33 AM 66.2 °F 60.8 °F 83% 30.23 in 10.0 mi NNE 8.1 mph - N/A   Overcast
10:51 AM 66.0 °F 61.0 °F 84% 30.22 in 10.0 mi NNE 8.1 mph - N/A   Overcast
11:51 AM 66.9 °F 61.0 °F 81% 30.22 in 10.0 mi NNE 11.5 mph 18.4 mph N/A   Overcast
12:51 PM 69.1 °F 61.0 °F 75% 30.22 in 10.0 mi NE 10.4 mph - N/A   Overcast
1:32 PM 71.6 °F 60.8 °F 69% 30.21 in 10.0 mi NE 8.1 mph - N/A   Mostly Cloudy
1:51 PM 72.0 °F 61.0 °F 68% 30.19 in 10.0 mi ENE 5.8 mph - N/A   Mostly Cloudy
2:51 PM 73.9 °F 61.0 °F 64% 30.18 in 10.0 mi ENE 5.8 mph - N/A   Mostly Cloudy
3:51 PM 75.0 °F 57.9 °F 55% 30.16 in 10.0 mi ENE 11.5 mph 18.4 mph N/A   Mostly Cloudy
4:51 PM 75.0 °F 59.0 °F 57% 30.16 in 10.0 mi ENE 8.1 mph - N/A   Mostly Cloudy
5:51 PM 72.0 °F 61.0 °F 68% 30.16 in 10.0 mi ENE 3.5 mph - N/A   Mostly Cloudy
6:51 PM 70.0 °F 61.0 °F 73% 30.16 in 10.0 mi Calm Calm - N/A   Mostly Cloudy
7:51 PM 66.0 °F 60.1 °F 81% 30.17 in 10.0 mi Calm Calm - N/A   Mostly Cloudy
8:51 PM 62.1 °F 60.1 °F 93% 30.18 in 10.0 mi Calm Calm - N/A   Scattered Clouds
9:51 PM 62.1 °F 59.0 °F 90% 30.19 in 9.0 mi Calm Calm - N/A   Scattered Clouds
10:51 PM 62.1 °F 59.0 °F 90% 30.21 in 10.0 mi Calm Calm - N/A   Partly Cloudy
11:51 PM 60.1 °F 57.9 °F 93% 30.21 in 6.0 mi Calm Calm - N/A   Scattered Clouds